103  
ASUS46 KSGX 250111  
RWRSGX  
 
SAN DIEGO HOURLY WEATHER ROUNDUP  
NATIONAL WEATHER SERVICE SAN DIEGO CA  
600 PM PDT FRI MAR 24 2017  
 
NOTE: "FAIR" INDICATES FEW OR NO CLOUDS BELOW 12,000 FEET WITH NO  
SIGNIFICANT WEATHER AND/OR S TO VISIBILITY
.  
 
CAZ042-043-060-061-PZZ750-775-250200-  
 
GREATER SAN DIEGO AREA  
 
CITY SKY/WX TMP DP RH WIND PRES REMARKS
 
SAN DIEGO AP MOSUNNY 65 50 58 NW9 30.18F  
NATIONAL CITY N/A 64 53 67 NW3 30.17F  
CHULA VISTA N/A 64 54 69 W8 30.10F  
IMPERIAL BEACH MOSUNNY 63 51 65 NW10 30.17F  
BROWN FIELD SUNNY 62 53 72 NW6 30.17F  
MIRAMAR MCAS MOSUNNY 66 49 54 NW6 30.17F  
MONTGOMERY FLD SUNNY 62 48 60 N9 30.18S  
 

 
 
NORTH SAN DIEGO COUNTY  
 
CITY SKY/WX TMP DP RH WIND PRES REMARKS
 
CAMP PENDLETON SUNNY 63 54 72 SW6 30.15F  
OCEANSIDE AP SUNNY 63 54 72 W6 30.15F  
OCEANSIDE HBR N/A 60 54 79 N12 30.18F  
VISTA N/A 62 51 66 CALM 30.15F  
CARLSBAD SUNNY 61 51 70 W7 30.16F  
DEL MAR N/A 63 54 73 CALM 30.19F  
LA JOLLA SCRIP N/A 61 55 79 NW3 30.18F  
FALLBROOK N/A 63 53 70 SW3 30.14S  
ESCONDIDO N/A 63 47 55 SW3 30.18F  
SAN MARCOS N/A 64 49 60 NW6 30.18F  
POWAY N/A 66 48 53 NW1 30.20S  
 

 
 
EAST SAN DIEGO COUNTY  
 
CITY SKY/WX TMP DP RH WIND PRES REMARKS
 
RAMONA SUNNY 61 47 59 W8 30.17S  
SANTEE LAKES N/A 66 51 58 W3 30.17S  
LA MESA N/A 63 49 61 W3 30.11F  
JAMUL N/A 62 47 58 CALM 30.18F  
DESCANSO N N/A 55 46 70 W3 30.15S  
CAMPO N/A 62 48 60 NW12 30.13R  
 

 
 
ORANGE COUNTY AND THE LOS ANGELES BASIN  
 
CITY SKY/WX TMP DP RH WIND PRES REMARKS
 
JOHN WAYNE AP PTSUNNY 64 50 60 SW8 30.16F  
LAGUNA BEACH N/A 64 55 72 NW2 30.12F  
LAKE FOREST FR N/A 63 44 49 W5 30.06F  
HUNTINGTON BCH N/A 63 56 79 W8 30.18S  
LOS ALAMITOS PTSUNNY 64 52 64 W7 30.16S  
FULLERTON MOSUNNY 66 46 48 VRB5 30.15S  
LONG BEACH MOSUNNY 65 47 52 NW8 30.16F  
L.A. AP PTSUNNY 61 53 75 W15 30.16F  
L.A. DOWNTOWN MOSUNNY 63 53 70 W6 30.16S  
 

 
 
THE INLAND EMPIRE  
 
CITY SKY/WX TMP DP RH WIND PRES REMARKS
 
CORONA PTSUNNY 65 45 48 W12G18 30.15S  
CHINO PTSUNNY 66 45 46 W13 30.16R  
ONTARIO PTSUNNY 65 43 44 SW12 30.14S  
SAN BERNARDINO SUNNY 68 N/A N/A SW15 30.14S  
RIVERSIDE AP PTSUNNY 65 46 50 W12 30.14S  
MORENO VALLEY N/A 68 49 50 W5 28.25S  
MARCH ARB MOSUNNY 65 44 47 NW10 30.14S  
HORSETHIEF CYN N/A 67 39 36 E10 30.15S  
PERRIS N/A 67 47 48 W6 30.14S  
HEMET EAST N/A 68 46 44 SW1 30.21R  
FRENCH VALLEY FAIR 64 45 48 S15 30.15S  
TEMECULA N/A 65 51 59 S8 30.20S  
 

 
 
SAN BERNARDINO AND RIVERSIDE COUNTY MOUNTAINS  
 
CITY SKY/WX TMP DP RH WIND PRES REMARKS
 
BIG BEAR AP MOSUNNY 50 30 46 SW7 30.24R  
PINE COVE N/A 50 37 59 W3 30.18S  
 

 
 
SOUTHERN DESERT INCLUDING THE COACHELLA VALLEY  
 
CITY SKY/WX TMP DP RH WIND PRES REMARKS
 
PALM SPRINGS MOSUNNY 80 30 16 VRB7 30.06F  
PALM DESERT N/A 79 39 23 SE2 32.06S  
THERMAL SUNNY 79 30 16 S7 30.02F  
BLYTHE SUNNY 81 28 14 S12 30.03F  
IMPERIAL AP SUNNY 81 38 21 E12 30.02F  
EL CENTRO NAS SUNNY 81 33 17 SE7 30.04F  
YUMA AZ SUNNY 79 29 16 S8 30.05  
MEXICALI SUNNY 79 36 21 SE7 30.05F  
 

 
 
UPPER DESERT  
 
CITY SKY/WX TMP DP RH WIND PRES REMARKS
 
VICTORVILLE AP MOSUNNY 66 36 32 W15G22 30.11S  
HESPERIA N/A 63 38 39 SW9 30.24R  
PALMDALE MOSUNNY 66 43 43 SW20 30.12F  
LANCASTER MOSUNNY 67 31 26 W25 30.12S  
EDWARDS AFB PTSUNNY 70 36 29 SW22 30.07R  
DAGGETT MOSUNNY 79 27 14 VRB7 30.03S  
29 PALMS N MOSUNNY 74 26 16 SW20 30.12F  
NEEDLES SUNNY 81 24 12 S7 30.04S  
 

 
 
REGIONAL REPORTS  
 
CITY SKY/WX TMP DP RH WIND PRES REMARKS
 
SANTA BARBARA MOSUNNY 61 51 70 W13 30.15F  
SANDBERG MOSUNNY 55 28 35 NW21G26 30.20F  
LAS VEGAS NV MOSUNNY 78 20 11 SE8 29.99F  
PHOENIX AZ CLEAR 76 32 20 CALM 30.06F  
TIJUANA SUNNY 61 48 63 NW10 30.20F  
ENSENADA NW N/A 63 32 30 W3 30.13F  
 

 
 
OFFSHORE ISLANDS  
 
CITY SKY/WX TMP DP RH WIND PRES REMARKS
 
CATALINA ARPT MOSUNNY 55 49 80 W15 30.18S  
SAN NICOLAS IS MOSUNNY N/A N/A N/A W22G28 30.19F  
 

 
 
MARINE AND OFFSHORE BUOY REPORTS  
 
STATION/POSITION SKY/WX TEMP WIND PRES VSBY SWELL
 
AIR SEA DIR/SP/G HT/PER/DIR  
(F) (DEG/KT/KT) (MB) (MI) (FT/S/D)  
TANNER BANKS 58 60 310/ 17/ 19 1022.6 5/250/15  
S CLEMENTE BASIN 58 61 310/ 14/ 16 1021.9 3/220/15  
SAN NICOLAS IS. 57 N/A 3/290/14  
SO. S. ROSA ISLA 57 57 290/ 12/ 14 1023.1 5/260/14  
W. S. BARBARA CH 57 58 310/ 10/ 12 1023.2 5/280/13  
M. S. BARBARA CH 260/ 19/ 23 1021.9F  
S. MONICA BASIN 58 59 300/ 12/ 16 1021.5F 3/270/15  
S PEDRO CHANNEL 60 N/A 2/270/13  
CMP PENDLETON NS 60 N/A 2/210/14  
OCEANSIDE OFFSHR 61 N/A 2/190/15  
TORREY PINES OTR 62 N/A 3/200/15  
POINT LOMA SOUTH 62 N/A 3/220/15  
 

 
 
 
 
CLICK HERE TO GO TO PREVIOUS BULLETINS.

The Nexlab CA Page Main Text Page